Weather History for LGAV - November, 2013

Change the Weather History Date:

Wednesday, November 27, 2013

  Actual Average (LGEL) Record (LGEL)
Temperature  
Mean Temperature 53 °F -  
Max Temperature 62 °F 61 °F 75 °F (2010)
Min Temperature 42 °F 48 °F 39 °F (2001)
Degree Days  
Heating Degree Days 12    
Growing Degree Days 3 (Base 50)    
Moisture  
Dew Point 39 °F    
Average Humidity 61    
Maximum Humidity 93    
Minimum Humidity 27    
Precipitation  
Precipitation 0.00 in - - ()
Sea Level Pressure  
Sea Level Pressure 30.01 in    
Wind  
Wind Speed 4 mph ()    
Max Wind Speed 12 mph    
Max Gust Speed -    
Visibility 6.2 miles    
Events      
Averages and records for this station are not official NWS values.
T = Trace of Precipitation, MM = Missing Value Source: Averaged Metar Reports

Daily Weather History Graph

Daily Weather History Graph

Search for Another Location

Airport or City:

Trip Planner

Search our weather history database for the weather conditions in past years. The results will help you decide how hot, cold, wet, or windy it might be!

Date:

Astronomy

Nov. 27, 2013 Rise Set
Actual Time 7:17 AM EET 5:06 PM EET
Civil Twilight 6:48 AM EET 5:34 PM EET
Nautical Twilight 6:16 AM EET 6:07 PM EET
Astronomical Twilight 5:44 AM EET 6:38 PM EET
Moon 1:06 AM EET (11/27) 1:28 PM EET (11/27)
Length of Visible Light 10h 46m
Length of Day
9h 48m
Waning Crescent, 34% of the Moon is Illuminated
Nov 27
Waning Crescent
Dec 3
New
Dec 9
First Quarter
Dec 17
Full
Dec 25
Last Quarter

Hourly Weather History & Observations

Time (EET) Temp. Windchill Dew Point Humidity Pressure Visibility Wind Dir Wind Speed Gust Speed Precip Events Conditions
12:20 AM 48.2 °F - 42.8 °F 82% 29.80 in 6.2 mi NW 3.5 mph - N/A   Partly Cloudy
12:50 AM 48.2 °F - 42.8 °F 82% 29.80 in 6.2 mi SW 4.6 mph - N/A   Partly Cloudy
1:20 AM 48.2 °F - 44.6 °F 87% 29.80 in 6.2 mi WNW 2.3 mph - N/A   Partly Cloudy
1:50 AM 48.2 °F - 42.8 °F 82% 29.80 in 6.2 mi WNW 4.6 mph - N/A   Partly Cloudy
2:20 AM 48.2 °F - 42.8 °F 82% 29.83 in 6.2 mi Variable 2.3 mph - N/A   Partly Cloudy
2:50 AM 48.2 °F - 42.8 °F 82% 29.83 in 6.2 mi Variable 1.2 mph - N/A   Partly Cloudy
3:20 AM 46.4 °F - 42.8 °F 87% 29.83 in 6.2 mi Variable 1.2 mph - N/A   Partly Cloudy
3:50 AM 48.2 °F - 44.6 °F 87% 29.83 in 6.2 mi SW 3.5 mph - N/A   Partly Cloudy
4:20 AM 48.2 °F - 42.8 °F 82% 29.83 in 6.2 mi Variable 2.3 mph - N/A   Partly Cloudy
4:50 AM 46.4 °F - 44.6 °F 93% 29.86 in 6.2 mi Calm Calm - N/A   Partly Cloudy
5:20 AM 51.8 °F - 46.4 °F 82% 29.86 in 6.2 mi NNW 4.6 mph - N/A   Partly Cloudy
5:50 AM 53.6 °F - 44.6 °F 72% 29.86 in 6.2 mi WNW 10.4 mph - N/A   Partly Cloudy
6:20 AM 53.6 °F - 42.8 °F 67% 29.89 in 6.2 mi West 5.8 mph - N/A   Partly Cloudy
6:50 AM 53.6 °F - 41.0 °F 62% 29.89 in 6.2 mi West 8.1 mph - N/A   Partly Cloudy
7:20 AM 53.6 °F - 39.2 °F 58% 29.92 in 6.2 mi SSW 6.9 mph - N/A   Partly Cloudy
7:50 AM 53.6 °F - 39.2 °F 58% 29.92 in 6.2 mi SSW 5.8 mph - N/A   Partly Cloudy
8:20 AM 55.4 °F - 37.4 °F 51% 29.92 in 6.2 mi Variable 3.5 mph - N/A   Partly Cloudy
8:50 AM 57.2 °F - 37.4 °F 48% 29.95 in 6.2 mi West 5.8 mph - N/A   Partly Cloudy
9:20 AM 57.2 °F - 35.6 °F 44% 29.98 in 6.2 mi West 5.8 mph - N/A   Partly Cloudy
9:50 AM 59.0 °F - 35.6 °F 42% 29.98 in 6.2 mi West 8.1 mph - N/A   Partly Cloudy
10:20 AM 59.0 °F - 33.8 °F 39% 30.01 in - WNW 5.8 mph - N/A   Clear
10:50 AM 60.8 °F - 35.6 °F 39% 30.01 in - West 5.8 mph - N/A   Clear
11:20 AM 60.8 °F - 35.6 °F 39% 30.01 in - WNW 9.2 mph - N/A   Clear
11:50 AM 60.8 °F - 35.6 °F 39% 30.01 in 6.2 mi NW 6.9 mph - N/A   Partly Cloudy
12:20 PM 60.8 °F - 32.0 °F 34% 30.01 in - WNW 11.5 mph - N/A   Clear
12:50 PM 62.6 °F - 30.2 °F 30% 30.04 in - WNW 9.2 mph - N/A   Clear
1:20 PM 62.6 °F - 28.4 °F 27% 30.04 in - NNW 6.9 mph - N/A   Clear
1:50 PM 62.6 °F - 30.2 °F 30% 30.04 in - NW 5.8 mph - N/A   Clear
2:20 PM 62.6 °F - 30.2 °F 30% 30.04 in - NW 4.6 mph - N/A   Clear
2:50 PM 62.6 °F - 30.2 °F 30% 30.04 in - NW 5.8 mph - N/A   Clear
3:20 PM 62.6 °F - 33.8 °F 34% 30.06 in - WNW 8.1 mph - N/A   Clear
3:50 PM 60.8 °F - 33.8 °F 36% 30.06 in 6.2 mi WNW 8.1 mph - N/A   Partly Cloudy
4:20 PM 60.8 °F - 33.8 °F 36% 30.09 in 6.2 mi West 8.1 mph - N/A   Partly Cloudy
4:50 PM 59.0 °F - 37.4 °F 45% 30.09 in - West 5.8 mph - N/A   Clear
5:20 PM 55.4 °F - 41.0 °F 58% 30.09 in 6.2 mi ENE 5.8 mph - N/A   Partly Cloudy
5:50 PM 55.4 °F - 42.8 °F 63% 30.12 in 6.2 mi NNE 5.8 mph - N/A   Partly Cloudy
6:20 PM 53.6 °F - 42.8 °F 67% 30.12 in 6.2 mi NNE 5.8 mph - N/A   Partly Cloudy
6:50 PM 53.6 °F - 42.8 °F 67% 30.12 in - North 5.8 mph - N/A   Clear
7:20 PM 53.6 °F - 42.8 °F 67% 30.15 in 6.2 mi WNW 3.5 mph - N/A   Partly Cloudy
7:50 PM 51.8 °F - 41.0 °F 67% 30.15 in 6.2 mi West 3.5 mph - N/A   Partly Cloudy
8:20 PM 51.8 °F - 42.8 °F 71% 30.18 in 6.2 mi West 4.6 mph - N/A   Partly Cloudy
8:50 PM 50.0 °F - 41.0 °F 71% 30.18 in 6.2 mi West 3.5 mph - N/A   Partly Cloudy
9:20 PM 50.0 °F - 41.0 °F 71% 30.18 in 6.2 mi WSW 3.5 mph - N/A   Partly Cloudy
9:50 PM 50.0 °F - 41.0 °F 71% 30.21 in 6.2 mi WSW 3.5 mph - N/A   Partly Cloudy
10:20 PM 48.2 °F - 41.0 °F 76% 30.21 in 6.2 mi SW 4.6 mph - N/A   Partly Cloudy
10:50 PM 44.6 °F - 41.0 °F 87% 30.21 in 6.2 mi Variable 2.3 mph - N/A   Partly Cloudy
11:20 PM 44.6 °F - 41.0 °F 87% 30.24 in 6.2 mi Variable 1.2 mph - N/A   Partly Cloudy
11:50 PM 42.8 °F 39.3 °F 39.2 °F 87% 30.24 in 6.2 mi West 5.8 mph - N/A   Partly Cloudy